Hourly Data Report for April 11, 2018

KUGAARUK CLIMATE
NUNAVUT
Current Station Operator: ECCC - MSC

68°32'15.060" N
89°47'47.020" W
15.80 m
2303094
71407
NBB

Download Data

Hourly Data (April 2018)
Hourly Data Report for April 11, 2018
TIME
LST
Temp Definition
°C
Dew Point Definition
°C
Rel Hum Definition
%
Precip. Amount Definition
mm

Wind Dir Definition
10's deg

Wind Spd Definition
km/h
Visibility Definition
km
Stn Press Definition
kPa
Hmdx Definition


Wind Chill Definition


Weather Definition


00:00 -32.6 -36.0 72 0.0 25 10   100.77   -42 LegendNANA
01:00 -33.5 -37.1 70 0.0 26 8   100.80   -42 LegendNANA
02:00 -33.9 -37.5 70 0.0 26 9   100.83   -43 LegendNANA
03:00 -34.6 -38.4 69 0.0 26 10   100.84   -45 LegendNANA
04:00 -34.6 -38.6 67 0.0 26 12   100.86   -46 LegendNANA
05:00 -34.0 -38.3 65 0.0 25 13   100.89   -45 LegendNANA
06:00 -32.3 -36.8 64 0.0 25 11   100.90   -42 LegendNANA
07:00 -31.1 -35.9 63 0.0 26 14   100.90   -42 LegendNANA
08:00 -30.3 -35.5 61 0.0 27 15   100.91   -42 LegendNANA
09:00 -29.5 -34.9 59 0.0 26 13   100.92   -40 LegendNANA
10:00 -28.6 -34.0 60 0.0 26 16   100.93   -40 LegendNANA
11:00 -27.6 -32.8 61 0.0 25 20   100.94   -40 LegendNANA
12:00 -26.8 -32.4 59 0.0 26 18   100.95   -38 LegendNANA
13:00 -26.4 -31.8 60 0.0 25 17   100.98   -38 LegendNANA
14:00 -26.0 -31.3 61 0.0 25 17   101.02   -37 LegendNANA
15:00 -25.8 -31.2 61 0.0 24 15   101.05   -36 LegendNANA
16:00 -25.5 -30.6 62 0.0 25 14   101.08   -35 LegendNANA
17:00 -25.7 -30.6 64 0.0 25 11   101.10   -34 LegendNANA
18:00 -26.6 -31.1 65 0.0 26 3   101.11   -30 LegendNANA
19:00 -27.7 -31.2 72 0.0 27 6   101.14   -34 LegendNANA
20:00 -29.3 -32.9 71 0.0 26 8   101.16   -37 LegendNANA
21:00 -30.5 -34.0 72 0.0 25 9   101.20   -39 LegendNANA
22:00 -29.8 -33.0 74 0.0 25 8   101.23   -38 LegendNANA
23:00 -32.3 -35.9 70 0.0 27 6   101.28   -39 LegendNANA

Notes on Data Quality.

Legend

  • E = Estimated
  • M = Missing
  • NA = Not Available*
  • [empty] = Indicates an unobserved value
Date modified: